Regional Weather Roundup
Issued by NWS

Home | Current Version | Previous Version | Text Only | Print | Product List | Glossary On
Versions: 1 2 3 4 5 6 7 8 9 10 11 12 13 14 15 16 17 18 19 20 21 22 23 24 25 26 27 28 29 30 31 32 33 34 35 36 37 38 39 40 41 42 43 44 45 46 47 48 49 50
000
ASUS43 KTOP 302308
RWRKS

WEATHER ROUNDUP FOR KANSAS
NATIONAL WEATHER SERVICE GOODLAND KS
600 PM CDT TUE SEP 30 2014

NOTE:  "FAIR" INDICATES FEW OR NO CLOUDS BELOW 12,000 FEET WITH NO
SIGNIFICANT WEATHER AND/OR OBSTRUCTIONS TO VISIBILITY.

KSZ001>006-013>018-027>032-041>047-010000-
NORTHWEST KANSAS

CITY           SKY/WX    TMP DP  RH WIND       PRES   REMARKS
GOODLAND       SUNNY     72  39  30 SW3       29.77S
HAYS           MOSUNNY   77  61  57 NE5       29.68F
HILL CITY      MOSUNNY   79  55  43 E6        29.71S
RUSSELL        PTSUNNY   73  67  81 CALM      29.65F THUNDER
$$

KSZ061>065-074>080-084>089-010000-
SOUTHWEST KANSAS

CITY           SKY/WX    TMP DP  RH WIND       PRES   REMARKS
DODGE CITY     SUNNY     84  44  24 SW12G23   29.69F
GARDEN CITY    MOSUNNY   78  49  35 SW5       29.73R
GREAT BEND     PTSUNNY   70  61  73 NW6G31    29.67S THUNDER
LIBERAL        SUNNY     82  41  23 NW9       29.73S
PRATT          PTSUNNY   82  54  36 S16G26    29.68F
$$

KSZ066>073-081>083-090>101-010000-
SOUTHEAST KANSAS

CITY           SKY/WX    TMP DP  RH WIND       PRES   REMARKS
CHANUTE        SUNNY     80  62  54 S17       29.79F
COFFEYVILLE    SUNNY     82  63  52 SE16      29.78F
HUTCHINSON     PTSUNNY   84  56  38 S18G28    29.69F
MEDICINE LODGE   N/A     85  58  39 S14G25    29.67S
NEWTON         MOSUNNY   81  57  44 S20       29.74F
PARSONS        SUNNY     82  63  52 S8G18     29.80S
WICHITA INTL   MOSUNNY   85  57  38 S22       29.70F
WICHITA JABRA  MOSUNNY   83  59  44 SE21      29.72F
WICHITA MCCONL MOSUNNY   84  59  42 SE17      29.73F
WINFIELD       SUNNY     83  61  47 S16       29.74F
$$

KSZ007>012-019>026-033>040-048>060-102>105-010000-
NORTHEAST KANSAS

CITY           SKY/WX    TMP DP  RH WIND       PRES   REMARKS
CONCORDIA      PTSUNNY   69  67  93 NE7       29.71F
EMPORIA        MOSUNNY   80  62  54 S16G26    29.75F
LAWRENCE       SUNNY     81  57  43 S13       29.77S
MANHATTAN      MOSUNNY   83  61  47 S18G28    29.70F
MARYSVILLE     CLOUDY    68  64  88 CALM      29.74R
OLATHE IND     SUNNY     80  58  46 S12       29.80S
OLATHE EXE     SUNNY     80  57  45 S13       29.79F
SALINA         LGT RAIN  80  62  54 S15       29.67F
TOPEKA BILLARD PTSUNNY   83  58  42 S16       29.75F
TOPEKA FORBES  LGT RAIN  82  57  42 S15       29.75F
$$


USA.gov is the U.S. government's official web portal to all federal, state and local government web resources and services.